Weather reports worldwide

Advertisment
Fair Isle, United Kingdom (3008): temperature & dewpoint: 19.03.2019 06:00:00 - 25.03.2019 06:00:00 (GMT)Fair Isle, United Kingdom (3008): temperature -20cm & temperature -100cm: 19.03.2019 06:00:00 - 25.03.2019 06:00:00 (GMT)Fair Isle, United Kingdom (3008): wind speed & gusts: 19.03.2019 06:00:00 - 25.03.2019 06:00:00 (GMT)Fair Isle, United Kingdom (3008): wind direction: 19.03.2019 06:00:00 - 25.03.2019 06:00:00 (GMT)Fair Isle, United Kingdom (3008): reduced air pressure: 19.03.2019 06:00:00 - 25.03.2019 06:00:00 (GMT)Fair Isle, United Kingdom (3008): visibility: 19.03.2019 06:00:00 - 25.03.2019 06:00:00 (GMT)Fair Isle, United Kingdom (3008): precipitation: 19.03.2019 06:00:00 - 25.03.2019 06:00:00 (GMT)
Date & Time tt [°C] td [°C] tt -20cm [°C] tt -100cm [°C] ff [km/h] ff [kn] fx [km/h] fx [kn] dd ppp [hPa] vv [km] rr [mm]
25.03.2019 06:00:00 6,0 1,5 - - 35 19 57 31 NNW 1025,1 21 0,0
25.03.2019 05:00:00 5,7 1,6 - - 34 18 55 30 NNW 1023,8 21 0,0
25.03.2019 04:00:00 5,9 2,0 - - 42 23 63 34 NNW 1022,5 19 0,0
25.03.2019 03:00:00 6,4 2,7 - - 41 22 63 34 NNW 1021,3 16 0,0
25.03.2019 02:00:00 6,4 2,7 - - 42 23 65 35 NNW 1020,3 20 0,0
25.03.2019 01:00:00 5,9 2,6 - - 41 22 67 36 NNW 1019,2 13 0,0
25.03.2019 00:00:00 5,7 1,9 - - 35 19 74 40 NW 1017,9 15 0,0
24.03.2019 23:00:00 5,2 1,9 - - 35 19 72 39 NW 1016,8 18 0,0
24.03.2019 22:00:00 6,1 1,5 - - 50 27 70 38 NNW 1015,2 17 0,0
24.03.2019 21:00:00 5,6 1,7 - - 35 19 59 32 NNW 1013,8 15 0,0
24.03.2019 20:00:00 5,0 2,0 - - 41 22 72 39 NNW 1011,5 35 0,2
24.03.2019 19:00:00 5,1 2,7 - - 28 15 61 33 WNW 1009,7 18 0,0
24.03.2019 18:00:00 4,7 1,3 - - 41 22 74 40 W 1009,6 21 0,4
24.03.2019 17:00:00 5,5 2,3 - - 39 21 72 39 W 1009,3 16 0,2
24.03.2019 16:00:00 5,0 2,3 - - 41 22 70 38 W 1009,8 11 0,2
24.03.2019 15:00:00 5,8 1,9 - - 39 21 68 37 W 1010,0 13 0,0
24.03.2019 14:00:00 5,4 2,6 - - 34 18 57 31 W 1010,1 15 0,6
24.03.2019 13:00:00 4,8 1,6 - - 37 20 63 34 W 1010,3 9 0,0
24.03.2019 12:00:00 4,8 3,3 - - 34 18 80 43 W 1010,1 17 0,4
24.03.2019 11:00:00 4,6 3,2 - - 39 21 81 44 WSW 1010,2 11 0,8
24.03.2019 10:00:00 5,8 3,9 - - 41 22 76 41 WSW 1010,4 13 0,2
24.03.2019 09:00:00 5,6 4,1 6,4 6,4 37 20 70 38 WSW 1011,0 13 0,2
24.03.2019 08:00:00 5,0 3,7 - - 52 28 67 36 SW 1012,0 6 1,8
24.03.2019 07:00:00 5,4 3,3 - - 48 26 68 37 SW 1012,8 14 0,2
24.03.2019 06:00:00 5,3 3,4 - - 50 27 74 40 SW 1013,9 8 0,4
24.03.2019 05:00:00 5,3 3,1 - - 46 25 70 38 SW 1015,2 14 0,4
24.03.2019 04:00:00 5,5 3,0 - - 52 28 67 36 SW 1016,4 11 0,0
24.03.2019 03:00:00 5,5 3,0 - - 48 26 63 34 SW 1017,3 13 0,0
24.03.2019 02:00:00 5,3 2,9 - - 48 26 63 34 SW 1018,3 16 0,0
24.03.2019 01:00:00 5,3 3,1 - - 46 25 63 34 SW 1019,4 11 0,0
24.03.2019 00:00:00 5,2 3,4 - - 41 22 80 43 SW 1020,5 12 0,2
23.03.2019 23:00:00 4,5 2,0 - - 55 30 76 41 SW 1021,3 14 0,0
23.03.2019 22:00:00 5,5 3,2 - - 44 24 67 36 SW 1022,1 18 0,2
23.03.2019 21:00:00 4,5 3,0 - - 41 22 59 32 WSW 1022,7 13 1,4
23.03.2019 20:00:00 6,1 2,6 - - 46 25 68 37 WSW 1023,0 14 0,0
23.03.2019 19:00:00 6,3 3,1 - - 41 22 67 36 WSW 1023,0 14 0,0
23.03.2019 18:00:00 6,3 3,0 - - 37 20 59 32 WSW 1022,8 11 0,0
23.03.2019 17:00:00 7,1 2,5 - - 41 22 61 33 WSW 1022,8 10 0,0
23.03.2019 16:00:00 7,0 2,3 - - 46 25 67 36 WSW 1022,6 11 0,0
23.03.2019 15:00:00 7,4 1,5 - - 46 25 68 37 W 1022,1 11 0,0
23.03.2019 14:00:00 7,1 1,1 - - 50 27 70 38 W 1021,4 10 0,0
23.03.2019 13:00:00 6,4 1,6 - - 54 29 83 45 W 1020,6 8 0,0
23.03.2019 12:00:00 7,2 0,9 - - 54 29 85 46 W 1019,4 9 0,0
23.03.2019 11:00:00 6,5 2,7 - - 57 31 106 57 W 1018,7 8 0,0
23.03.2019 10:00:00 6,0 2,8 - - 55 30 93 50 WSW 1017,4 10 0,0
23.03.2019 09:00:00 6,4 -0,7 6,7 6,4 63 34 93 50 W 1016,2 10 0,0
23.03.2019 08:00:00 5,9 0,7 - - 57 31 83 45 W 1015,1 10 0,0
23.03.2019 07:00:00 3,5 1,5 - - 54 29 85 46 W 1014,7 10 0,2
23.03.2019 06:00:00 5,3 0,8 - - 57 31 91 49 WSW 1013,6 10 0,0
23.03.2019 05:00:00 4,8 1,3 - - 61 33 94 51 WSW 1013,1 10 0,2
23.03.2019 04:00:00 5,4 2,0 - - 61 33 102 55 WSW 1012,7 10 0,0
23.03.2019 03:00:00 4,2 3,8 - - 61 33 89 48 WSW 1012,3 9 0,4
23.03.2019 02:00:00 4,9 1,0 - - 61 33 91 49 WSW 1011,7 9 0,0
23.03.2019 01:00:00 5,3 0,5 - - 65 35 96 52 WSW 1011,5 9 0,0
23.03.2019 00:00:00 4,1 2,9 - - 50 27 93 50 WSW 1011,2 8 0,2
22.03.2019 23:00:00 5,7 2,4 - - 59 32 96 52 WSW 1010,2 9 0,2
22.03.2019 22:00:00 5,1 2,2 - - 68 37 96 52 WSW 1009,4 11 0,2
22.03.2019 21:00:00 6,2 0,4 - - 68 37 93 50 SW 1009,2 12 0,0
22.03.2019 20:00:00 6,0 2,3 - - 68 37 98 53 SW 1008,6 13 0,0
22.03.2019 19:00:00 6,1 3,0 - - 54 29 87 47 SW 1008,4 15 0,0
22.03.2019 18:00:00 7,4 2,3 - - 57 31 76 41 SW 1008,1 14 0,0
22.03.2019 17:00:00 7,3 2,0 - - 63 34 87 47 WSW 1007,7 24 0,2
22.03.2019 16:00:00 8,0 4,5 - - 54 29 80 43 WSW 1007,9 16 0,0
22.03.2019 15:00:00 7,0 3,8 - - 46 25 67 36 WSW 1008,1 8 0,2
22.03.2019 14:00:00 9,0 6,2 - - 42 23 57 31 SW 1007,5 10 0,0
22.03.2019 13:00:00 8,0 6,6 - - 37 20 80 43 SW 1007,4 10 0,2
22.03.2019 12:00:00 9,4 7,1 - - 41 22 65 35 SSW 1006,8 11 0,0
22.03.2019 11:00:00 9,2 6,9 - - 52 28 68 37 S 1006,8 17 0,0
22.03.2019 10:00:00 9,0 6,8 - - 54 29 72 39 S 1007,2 16 0,0
22.03.2019 09:00:00 8,7 7,0 6,7 6,2 50 27 68 37 S 1008,6 12 0,0
22.03.2019 08:00:00 8,4 7,2 - - 44 24 65 35 S 1009,5 11 0,2
22.03.2019 07:00:00 8,1 7,2 - - 46 25 70 38 S 1010,2 10 0,0
22.03.2019 06:00:00 8,2 7,4 - - 48 26 68 37 S 1011,4 10 0,0
22.03.2019 05:00:00 8,3 7,7 - - 50 27 68 37 S 1012,4 10 0,0
22.03.2019 04:00:00 8,2 8,0 - - 52 28 67 36 SSE 1013,5 10 0,0
22.03.2019 03:00:00 8,0 7,9 - - 46 25 63 34 SSE 1015,3 6 0,4
22.03.2019 02:00:00 8,4 8,2 - - 46 25 65 35 S 1017,2 8 0,2
22.03.2019 01:00:00 7,9 7,2 - - 42 23 70 38 SSE 1018,7 7 0,4
22.03.2019 00:00:00 7,8 5,2 - - 52 28 72 39 SSE 1020,4 15 0,0
21.03.2019 23:00:00 7,7 4,2 - - 44 24 61 33 SSE 1022,2 18 0,0
21.03.2019 22:00:00 7,4 4,5 - - 39 21 50 27 SSE 1024,2 19 0,0
21.03.2019 21:00:00 7,2 5,1 - - 28 15 - - SSE 1025,0 16 0,0
21.03.2019 20:00:00 6,7 5,2 - - 22 12 - - S 1026,2 19 0,0
21.03.2019 19:00:00 6,5 4,7 - - 22 12 - - S 1026,0 19 0,0
21.03.2019 18:00:00 7,0 3,8 - - 24 13 - - S 1026,1 21 0,0
21.03.2019 17:00:00 7,5 4,3 - - 18 10 - - S 1026,5 26 0,0
21.03.2019 16:00:00 8,2 3,3 - - 13 7 - - SW 1027,1 17 0,0
21.03.2019 15:00:00 8,1 3,5 - - 21 11 - - W 1027,3 20 0,0
21.03.2019 14:00:00 8,8 3,2 - - 22 12 - - W 1026,8 35 0,0
21.03.2019 13:00:00 8,8 2,8 - - 24 13 - - W 1026,7 30 0,0
21.03.2019 12:00:00 8,3 1,7 - - 21 11 - - W 1025,7 27 0,0
21.03.2019 11:00:00 8,3 2,1 - - 21 11 - - WNW 1024,6 30 0,0
21.03.2019 10:00:00 7,8 2,4 - - 29 16 - - W 1023,6 22 0,0
21.03.2019 09:00:00 7,5 3,5 6,4 6,2 18 10 - - W 1022,6 17 0,0
21.03.2019 08:00:00 7,0 3,0 - - 31 17 - - W 1021,6 17 0,0
21.03.2019 07:00:00 7,0 6,5 - - 18 10 - - W 1020,4 10 0,0
21.03.2019 06:00:00 6,6 6,4 - - 22 12 - - W 1019,1 11 0,0
21.03.2019 05:00:00 7,2 7,1 - - 18 10 - - W 1017,5 11 0,2
21.03.2019 04:00:00 7,0 7,0 - - 28 15 - - W 1016,5 10 0,2
21.03.2019 03:00:00 7,8 7,8 - - 28 15 57 31 W 1015,4 2,9 0,4
21.03.2019 02:00:00 8,8 8,8 - - 42 23 54 29 SW 1014,5 3,2 0,6
21.03.2019 01:00:00 8,8 8,8 - - 39 21 54 29 SW 1014,3 2,4 0,6
21.03.2019 00:00:00 8,7 8,7 - - 39 21 54 29 SW 1013,9 4,7 0,8
20.03.2019 23:00:00 8,6 8,5 - - 37 20 48 26 SW 1013,7 3,1 0,4
20.03.2019 22:00:00 8,6 8,3 - - 34 18 48 26 SW 1013,5 3,1 0,4
20.03.2019 21:00:00 9,3 8,5 - - 42 23 65 35 SW 1013,3 5 0,2
20.03.2019 20:00:00 9,7 8,4 - - 46 25 61 33 SW 1012,9 9 0,0
20.03.2019 19:00:00 9,0 7,7 - - 46 25 67 36 SSW 1012,8 13 0,0
20.03.2019 18:00:00 8,9 7,6 - - 48 26 63 34 S 1013,5 16 0,0
20.03.2019 17:00:00 8,5 7,2 - - 42 23 55 30 S 1014,4 14 0,0
20.03.2019 16:00:00 8,2 5,7 - - 35 19 48 26 S 1016,2 13 0,0
20.03.2019 15:00:00 8,1 5,6 - - 31 17 - - S 1017,6 14 0,0
20.03.2019 14:00:00 7,8 6,0 - - 26 14 - - SSW 1019,1 10 0,0
20.03.2019 13:00:00 8,5 5,9 - - 29 16 - - SSW 1019,8 12 0,0
20.03.2019 12:00:00 8,2 5,7 - - 26 14 - - SSW 1020,2 10 0,0
20.03.2019 11:00:00 8,0 6,2 - - 29 16 - - SW 1020,3 8 0,0
20.03.2019 10:00:00 8,2 6,5 - - 29 16 - - SW 1020,8 10 0,0
20.03.2019 09:00:00 7,6 5,5 6,0 6,2 34 18 48 26 WSW 1020,0 12 0,0
20.03.2019 08:00:00 6,9 4,8 - - 28 15 48 26 WSW 1019,7 10 0,0
20.03.2019 07:00:00 7,2 5,0 - - 34 18 46 25 WSW 1019,1 10 0,0
20.03.2019 06:00:00 7,2 5,4 - - 34 18 52 28 WSW 1018,2 10 0,4
20.03.2019 05:00:00 7,2 5,8 - - 34 18 48 26 SW 1017,9 6 0,0
20.03.2019 04:00:00 7,1 5,2 - - 37 20 50 27 WSW 1017,3 12 0,0
20.03.2019 03:00:00 7,6 5,1 - - 34 18 50 27 WSW 1016,9 11 0,0
20.03.2019 02:00:00 7,3 5,1 - - 37 20 55 30 WSW 1016,4 10 0,2
20.03.2019 01:00:00 7,6 5,4 - - 34 18 54 29 WSW 1016,1 10 0,0
20.03.2019 00:00:00 7,6 5,2 - - 29 16 46 25 WSW 1016,0 9 0,0
19.03.2019 23:00:00 7,7 5,1 - - 31 17 48 26 WSW 1015,5 10 0,0
19.03.2019 22:00:00 7,9 5,2 - - 29 16 - - WSW 1015,3 10 0,0
19.03.2019 21:00:00 8,2 4,6 - - 29 16 52 28 W 1014,4 10 0,0
19.03.2019 20:00:00 8,0 6,9 - - 39 21 57 31 WSW 1013,8 9 0,0
19.03.2019 19:00:00 8,0 7,3 - - 46 25 68 37 WSW 1012,8 3,6 0,2
19.03.2019 18:00:00 8,6 8,0 - - 42 23 67 36 WSW 1012,0 13 0,0
19.03.2019 17:00:00 8,2 7,9 - - 35 19 48 26 SW 1011,9 3,8 0,4
19.03.2019 16:00:00 7,9 7,2 - - 34 18 50 27 SSW 1011,9 8 0,2
19.03.2019 15:00:00 7,8 7,0 - - 35 19 52 28 SSW 1012,3 15 0,0
19.03.2019 14:00:00 7,6 7,2 - - 37 20 50 27 SSW 1012,7 11 0,2
19.03.2019 13:00:00 7,8 7,5 - - 35 19 48 26 S 1012,7 13 0,2
19.03.2019 12:00:00 7,6 7,0 - - 35 19 46 25 S 1013,5 11 0,0
19.03.2019 11:00:00 7,4 6,7 - - 29 16 - - SSW 1014,4 11 0,0
19.03.2019 10:00:00 7,5 7,0 - - 29 16 - - SSW 1014,8 18 0,0
19.03.2019 09:00:00 7,1 6,8 5,7 6,2 28 15 - - S 1014,9 17 0,0
19.03.2019 08:00:00 7,1 6,4 - - 29 16 - - SSW 1015,3 18 0,0
19.03.2019 07:00:00 6,9 6,3 - - 29 16 - - SSW 1015,5 22 0,0
19.03.2019 06:00:00 6,7 6,1 - - 29 16 - - SSW 1015,6 21 0,0

tt = temperature
td = dewpoint
tt -20cm = temperature -20cm
tt -100cm = temperature -100cm
ff = wind speed
fx = gusts
dd = wind direction
ppp = reduced air pressure
vv = visibility
rr = precipitation

Next stations